Content
SEND FEEDBACK

Daily
Averages
Monthly
Summary
United States of America

POTTS JUNCTION, GUAM


Home > North America > United States > Guam
Elevation: 360 feet     Latitude: 13 33N     Longitude: 144 50E

WEATHER
 
SELECT A DAY
Number of Records: 214,954;   Date Range: 1/1/95 - 11/27/14
 
SHARE

PRINT THIS DATA

[ ← Previous Day ]
WEATHER ALMANAC - DECEMBER 14, 2013
[ Next Day → ]
[ °C ]   °F
Weather ElementAverageHighLow
Temperature82.2 °F88 °F (12:54 pm)78.8 °F (8:37 pm)
Dewpoint75.2 °F78.8 °F (4:16 pm)73 °F (3:54 am)
Humidity79.9 %94 % (4:16 pm)61 % (12:54 pm)
Barometer29.87 in29.93 in (8:54 am)29.83 in (1:54 pm)
Wind Speed14.4 mph25.3 mph (3:54 pm)
Wind Gust34.5 mph (3:54 pm)
Weather ElementAverage
Visibility8.9 mi
Wind DirectionENE (55 °)

Weather ElementTotal
Precipitation0.14 in
Cooling Degree Days18.4 (Base 65)
Growing Degree Days33.4 (Base 50)
Averaged from 34 records on December 14, 2013
WEATHER CONDITIONS BREAKOUT
WIND DIRECTION BREAKOUT
WEATHER BY HOUR - DECEMBER 14, 2013
[ °C ]   °F
Local TimeTemperatureDewpointHumidityBarometerVisibilityWind DirectionWind SpeedGust SpeedPrecipitationEventsConditions
1:54 AM80.1 °F73.9 °F81 %29.88 in10.0 miENE (70°)12.7 mphPartly Cloudy
2:54 AM80.1 °F73.9 °F81 %29.86 in10.0 miNE (50°)12.7 mphPartly Cloudy
3:54 AM79.0 °F73.0 °F82 %29.85 in10.0 miENE (60°)11.5 mphClear
4:54 AM79.0 °F73.0 °F82 %29.85 in10.0 miENE (60°)13.8 mphClear
5:54 AM79.0 °F73.0 °F82 %29.87 in10.0 miENE (60°)10.4 mphClear
6:54 AM80.1 °F73.9 °F81 %29.89 in10.0 miENE (60°)10.4 mphMostly Cloudy
7:54 AM82.0 °F73.9 °F76 %29.92 in10.0 miNE (50°)15.0 mph20.7 mphClear
8:54 AM82.9 °F73.9 °F74 %29.93 in10.0 miENE (60°)11.5 mphMostly Cloudy
9:54 AM84.9 °F73.9 °F69 %29.92 in10.0 miENE (60°)20.7 mphPartly Cloudy
10:54 AM87.1 °F73.9 °F65 %29.91 in10.0 miENE (60°)21.9 mph27.6 mphPartly Cloudy
11:54 AM86.0 °F73.9 °F67 %29.88 in10.0 miNE (50°)13.8 mphMostly Cloudy
12:54 PM88.0 °F73.0 °F61 %29.86 in10.0 miENE (60°)19.6 mphPartly Cloudy
1:30 PM87.8 °F73.4 °F62 %29.87 in10.0 miNE (40°)21.9 mphMostly Cloudy
1:54 PM87.1 °F73.9 °F65 %29.83 in10.0 miNE (40°)17.3 mphMostly Cloudy
2:21 PM87.8 °F73.4 °F62 %29.86 in10.0 miNE (40°)15.0 mph21.9 mphMostly Cloudy
2:37 PM84.2 °F73.4 °F70 %29.86 in10.0 miNE (40°)18.4 mph25.3 mphOvercast
2:46 PM84.2 °F73.4 °F70 %29.85 in10.0 miNNE (30°)17.3 mph25.3 mphOvercast
2:54 PM86.0 °F75.0 °F70 %29.83 in10.0 miNE (50°)13.8 mphOvercast
3:47 PM84.2 °F75.2 °F74 %29.85 in10.0 miNNE (30°)18.4 mph27.6 mph0.00 inMostly Cloudy
3:54 PM84.0 °F75.9 °F76 %29.83 in4.0 miENE (60°)25.3 mph34.5 mph0.00 inRainRain
4:16 PM80.6 °F78.8 °F94 %29.85 in5.0 miNE (50°)11.5 mph0.01 inOvercast
4:54 PM82.0 °F77.0 °F85 %29.83 in5.0 miNE (50°)19.6 mph23.0 mph0.01 inMostly Cloudy
5:49 PM82.4 °F77.0 °F84 %29.87 in4.0 miENE (70°)19.6 mph27.6 mphMostly Cloudy
5:54 PM80.1 °F77.0 °F90 %29.84 in2.0 miENE (60°)13.8 mph27.6 mph0.02 inRainHeavy Rain
6:06 PM80.6 °F77.0 °F89 %29.87 in8.0 miENE (60°)16.1 mph0.02 inRainLight Rain
6:54 PM79.0 °F77.0 °F94 %29.85 in10.0 miENE (60°)10.4 mph0.02 inPartly Cloudy
7:54 PM79.0 °F77.0 °F94 %29.86 in10.0 miNE (50°)8.1 mphPartly Cloudy
8:13 PM80.6 °F78.8 °F94 %29.89 in8.0 miENE (70°)12.7 mphMostly Cloudy
8:37 PM78.8 °F77.0 °F94 %29.89 in10.0 miNE (50°)6.9 mph0.02 inMostly Cloudy
8:45 PM78.8 °F77.0 °F94 %29.90 in8.0 miENE (60°)8.1 mph0.02 inRainLight Rain
8:54 PM79.0 °F77.0 °F94 %29.88 in10.0 miENE (70°)10.4 mph0.02 inScattered Clouds
9:54 PM80.1 °F77.0 °F90 %29.88 in10.0 miENE (60°)9.2 mphPartly Cloudy
10:54 PM80.1 °F75.9 °F87 %29.88 in10.0 miENE (70°)11.5 mphClear
11:54 PM80.1 °F75.0 °F85 %29.87 in10.0 miENE (60°)10.4 mphClear
Hourly data recorded from PGUM, located miles away from Potts Junction, Guam







STORIES FROM OUR PARTNERS